Location: Devargunta
(16.7631°N, 80.9077°E)
Time: 16:36:12
(UTC+00:00)

COSMO-SKYMED 1 - Pass Details

Date: 19 January 2021
Orbit: 621 x 623 km, 97.9° (Epoch: 27 February)

Event Time Altitude Azimuth Distance (km) Brightness Sun altitude
Rises 23:35:52 0° 149° (SSE) 2,890 6.7 -22.0°
Reaches altitude 10° 23:38:13 10° 140° (SE) 1,985 5.9 -21.5°
Maximum altitude 23:42:06 33° 76° (ENE) 1,048 4.2 -20.6°
Drops below altitude 10° 23:45:59 10° 12° (NNE) 1,989 5.1 -19.7°
Sets 23:48:19 0° 3° (N) 2,896 5.9 -19.2°
